sat.trackr.live / text

‹ back to catalog

STARLINK-32736

NORAD 62443 · 2024-251M

PAYLOAD ACTIVE UNKNOWN

§ Identity

Operator
Country
US
Launch date
2024-12-29
Launch site
AFWTR
Launch vehicle
Mass (kg)
RCS (m²)

Purposes: comms

External: N2YO · Heavens-Above · Gunter

§ Orbital elements

Epoch: 2026-05-24T22:51:23.949792Z

Period
94.10 min
Inclination
53.1595°
Eccentricity
0.0000971
Mean motion
15.30216998 rev/d
Perigee alt
474.5 km
Apogee alt
475.8 km
Semi-major
6,853.3 km
B*
1.2714e-3
RAAN
341.1398°
Arg perigee
93.7320°
Mean anomaly
266.3792°
Rev number
7,946

§ Raw data

STARLINK-327361 62443U 24251M   26144.95236053  .00037507  00000+0  12714-2 0  99912 62443  53.1595 341.1398 0000971  93.7320 266.3792 15.30216998 79464

JSON: /api/v1/satellites/62443 · /tle

For live sub-satellite position, see the globe view (requires WebGL).

§ Visibility from observer

Set your observer location to see the next 7 days of passes ≥ 10°. The values pass through the URL so the page stays shareable.

No JS? Fill the form by hand. The geolocation button needs JavaScript.